Time,TemperatureF,DewpointF,PressureIn,WindDirection,WindDirectionDegrees,WindSpeedMPH,WindSpeedGustMPH,Humidity,HourlyPrecipIn,Conditions,Clouds,dailyrainin,SoftwareType,DateUTC
2013-03-04 00:00:00,31.8,15.7,-100.00,NE,45,1.8,6.9,51,0.00,n/a,n/a,-99.99,Henriksen +1-Wire,2013-03-04 05:00:00,
2013-03-04 00:10:00,31.8,15.7,-100.00,NE,45,1.6,7.7,51,0.00,n/a,n/a,-99.99,Henriksen +1-Wire,2013-03-04 05:10:00,
2013-03-04 00:20:00,31.8,15.7,-100.00,NW,305,1.3,6.9,51,0.00,n/a,n/a,-99.99,Henriksen +1-Wire,2013-03-04 05:20:00,
2013-03-04 00:30:00,31.8,15.7,-100.00,NE,45,0.9,4.9,51,0.00,n/a,n/a,-99.99,Henriksen +1-Wire,2013-03-04 05:30:00,
2013-03-04 00:40:00,31.8,15.7,-100.00,NE,45,0.8,6.7,51,0.00,n/a,n/a,-99.99,Henriksen +1-Wire,2013-03-04 05:40:00,
2013-03-04 00:50:00,31.8,15.7,-100.00,NE,45,1.1,5.8,51,0.00,n/a,n/a,-99.99,Henriksen +1-Wire,2013-03-04 05:50:00,
2013-03-04 01:00:00,31.8,15.7,-100.00,NE,45,0.4,6.7,51,0.00,n/a,n/a,-99.99,Henriksen +1-Wire,2013-03-04 06:00:00,
2013-03-04 01:10:00,31.8,15.7,-100.00,NE,45,1.4,5.8,51,0.00,n/a,n/a,-99.99,Henriksen +1-Wire,2013-03-04 06:10:00,
2013-03-04 01:20:00,31.8,15.7,-100.00,NE,45,1.2,6.7,51,0.00,n/a,n/a,-99.99,Henriksen +1-Wire,2013-03-04 06:20:00,
2013-03-04 01:30:00,31.8,15.7,-100.00,NE,45,0.2,11.5,51,0.00,n/a,n/a,-99.99,Henriksen +1-Wire,2013-03-04 06:30:00,
2013-03-04 01:40:00,31.8,15.7,-100.00,NE,45,0.1,3.9,51,0.00,n/a,n/a,-99.99,Henriksen +1-Wire,2013-03-04 06:40:00,
2013-03-04 01:50:00,31.8,15.7,-100.00,NE,45,1.8,4.9,51,0.00,n/a,n/a,-99.99,Henriksen +1-Wire,2013-03-04 06:50:00,
2013-03-04 02:00:00,31.8,15.7,-100.00,NE,45,2.7,11.6,51,0.00,n/a,n/a,-99.99,Henriksen +1-Wire,2013-03-04 07:00:00,
2013-03-04 02:10:00,31.8,15.7,-100.00,NE,45,0.8,7.8,51,0.00,n/a,n/a,-99.99,Henriksen +1-Wire,2013-03-04 07:10:00,
2013-03-04 02:20:00,31.8,15.7,-100.00,NE,45,0.0,2.9,51,0.00,n/a,n/a,-99.99,Henriksen +1-Wire,2013-03-04 07:20:00,
2013-03-04 02:30:00,31.8,15.7,-100.00,NE,45,0.1,4.8,51,0.00,n/a,n/a,-99.99,Henriksen +1-Wire,2013-03-04 07:30:00,
2013-03-04 02:40:00,31.8,15.7,-100.00,NE,45,0.1,9.7,51,0.00,n/a,n/a,-99.99,Henriksen +1-Wire,2013-03-04 07:40:00,
2013-03-04 02:50:00,31.8,15.7,-100.00,NE,45,2.1,5.8,51,0.00,n/a,n/a,-99.99,Henriksen +1-Wire,2013-03-04 07:50:00,
2013-03-04 03:00:00,31.8,15.7,-100.00,NE,45,0.2,4.9,51,0.00,n/a,n/a,-99.99,Henriksen +1-Wire,2013-03-04 08:00:00,
2013-03-04 03:10:00,31.8,15.7,-100.00,NE,45,2.4,9.7,51,0.00,n/a,n/a,-99.99,Henriksen +1-Wire,2013-03-04 08:10:00,
2013-03-04 03:20:00,31.8,15.7,-100.00,NE,45,0.7,5.8,51,0.00,n/a,n/a,-99.99,Henriksen +1-Wire,2013-03-04 08:20:00,
2013-03-04 03:30:00,31.8,15.7,-100.00,NE,45,1.3,12.4,51,0.00,n/a,n/a,-99.99,Henriksen +1-Wire,2013-03-04 08:30:00,
2013-03-04 03:40:00,31.8,15.7,-100.00,NE,45,1.7,9.7,51,0.00,n/a,n/a,-99.99,Henriksen +1-Wire,2013-03-04 08:40:00,
2013-03-04 03:50:00,31.8,15.7,-100.00,NE,45,0.2,4.9,51,0.00,n/a,n/a,-99.99,Henriksen +1-Wire,2013-03-04 08:50:00,
2013-03-04 04:00:00,31.8,15.7,-100.00,NE,45,1.1,7.8,51,0.00,n/a,n/a,-99.99,Henriksen +1-Wire,2013-03-04 09:00:00,
2013-03-04 04:10:00,31.8,15.7,-100.00,NE,45,1.1,6.7,51,0.00,n/a,n/a,-99.99,Henriksen +1-Wire,2013-03-04 09:10:00,
2013-03-04 04:20:00,31.8,15.7,-100.00,NE,45,0.4,7.7,51,0.00,n/a,n/a,-99.99,Henriksen +1-Wire,2013-03-04 09:20:00,
2013-03-04 04:30:00,31.8,15.7,-100.00,NE,45,2.2,9.6,51,0.00,n/a,n/a,-99.99,Henriksen +1-Wire,2013-03-04 09:30:00,
2013-03-04 04:40:00,31.8,15.7,-100.00,NNW,339,0.2,9.6,51,0.00,n/a,n/a,-99.99,Henriksen +1-Wire,2013-03-04 09:40:00,
2013-03-04 04:50:00,31.8,15.7,-100.00,NE,45,2.4,7.8,51,0.00,n/a,n/a,-99.99,Henriksen +1-Wire,2013-03-04 09:50:00,
2013-03-04 05:00:00,31.8,15.7,-100.00,NE,45,0.7,4.9,51,0.00,n/a,n/a,-99.99,Henriksen +1-Wire,2013-03-04 10:00:00,
2013-03-04 05:10:00,31.8,15.7,-100.00,NE,45,1.7,5.8,51,0.00,n/a,n/a,-99.99,Henriksen +1-Wire,2013-03-04 10:10:00,
2013-03-04 05:20:00,31.8,15.7,-100.00,NE,45,1.7,6.7,51,0.00,n/a,n/a,-99.99,Henriksen +1-Wire,2013-03-04 10:20:00,
2013-03-04 05:30:00,31.8,15.7,-100.00,NE,45,0.2,3.9,51,0.00,n/a,n/a,-99.99,Henriksen +1-Wire,2013-03-04 10:30:00,
2013-03-04 05:40:00,31.8,15.7,-100.00,NE,45,1.4,5.8,51,0.00,n/a,n/a,-99.99,Henriksen +1-Wire,2013-03-04 10:40:00,
2013-03-04 05:50:00,31.8,15.7,-100.00,NE,45,1.5,9.7,51,0.00,n/a,n/a,-99.99,Henriksen +1-Wire,2013-03-04 10:50:00,
2013-03-04 06:00:00,31.8,15.7,-100.00,NE,45,1.5,5.8,51,0.00,n/a,n/a,-99.99,Henriksen +1-Wire,2013-03-04 11:00:00,
2013-03-04 06:10:00,31.8,15.7,-100.00,NE,45,2.3,6.8,51,0.00,n/a,n/a,-99.99,Henriksen +1-Wire,2013-03-04 11:10:00,
2013-03-04 06:20:00,31.8,15.7,-100.00,NE,45,2.2,7.8,51,0.00,n/a,n/a,-99.99,Henriksen +1-Wire,2013-03-04 11:20:00,
2013-03-04 06:30:00,31.8,15.7,-100.00,NE,45,0.4,8.7,51,0.00,n/a,n/a,-99.99,Henriksen +1-Wire,2013-03-04 11:30:00,
2013-03-04 06:40:00,31.8,15.7,-100.00,NE,45,1.7,7.8,51,0.00,n/a,n/a,-99.99,Henriksen +1-Wire,2013-03-04 11:40:00,
2013-03-04 06:50:00,31.8,15.7,-100.00,NE,45,2.7,10.5,51,0.00,n/a,n/a,-99.99,Henriksen +1-Wire,2013-03-04 11:50:00,
2013-03-04 07:00:00,31.8,15.7,-100.00,NE,45,1.4,6.8,51,0.00,n/a,n/a,-99.99,Henriksen +1-Wire,2013-03-04 12:00:00,
2013-03-04 07:10:00,31.8,15.7,-100.00,NE,45,0.5,5.9,51,0.00,n/a,n/a,-99.99,Henriksen +1-Wire,2013-03-04 12:10:00,
2013-03-04 07:20:00,31.8,15.7,-100.00,NE,45,1.4,12.4,51,0.00,n/a,n/a,-99.99,Henriksen +1-Wire,2013-03-04 12:20:00,
2013-03-04 07:30:00,31.8,15.7,-100.00,NE,45,2.6,8.7,51,0.00,n/a,n/a,-99.99,Henriksen +1-Wire,2013-03-04 12:30:00,
2013-03-04 07:40:00,31.8,15.7,-100.00,NE,45,1.9,8.7,51,0.00,n/a,n/a,-99.99,Henriksen +1-Wire,2013-03-04 12:40:00,
2013-03-04 07:50:00,31.8,15.7,-100.00,NE,45,3.2,9.7,51,0.00,n/a,n/a,-99.99,Henriksen +1-Wire,2013-03-04 12:50:00,
2013-03-04 08:00:00,31.8,15.7,-100.00,NE,45,3.4,10.6,51,0.00,n/a,n/a,-99.99,Henriksen +1-Wire,2013-03-04 13:00:00,
2013-03-04 08:10:00,31.8,15.7,-100.00,NE,45,2.2,13.5,51,0.00,n/a,n/a,-99.99,Henriksen +1-Wire,2013-03-04 13:10:00,
2013-03-04 08:20:00,31.8,15.7,-100.00,NE,45,6.1,13.6,51,0.00,n/a,n/a,-99.99,Henriksen +1-Wire,2013-03-04 13:20:00,
2013-03-04 08:30:00,31.8,15.7,-100.00,NE,45,0.3,6.7,51,0.00,n/a,n/a,-99.99,Henriksen +1-Wire,2013-03-04 13:30:00,
2013-03-04 08:40:00,31.8,15.7,-100.00,NE,45,2.4,8.7,51,0.00,n/a,n/a,-99.99,Henriksen +1-Wire,2013-03-04 13:40:00,
2013-03-04 08:50:00,31.8,15.7,-100.00,NE,45,4.6,10.7,51,0.00,n/a,n/a,-99.99,Henriksen +1-Wire,2013-03-04 13:50:00,
2013-03-04 09:00:00,31.8,15.7,-100.00,NE,45,3.3,8.6,51,0.00,n/a,n/a,-99.99,Henriksen +1-Wire,2013-03-04 14:00:00,
2013-03-04 09:10:00,31.8,15.7,-100.00,NE,45,4.1,8.6,51,0.00,n/a,n/a,-99.99,Henriksen +1-Wire,2013-03-04 14:10:00,
2013-03-04 09:20:00,31.8,15.7,-100.00,NE,45,2.1,7.7,51,0.00,n/a,n/a,-99.99,Henriksen +1-Wire,2013-03-04 14:20:00,
2013-03-04 09:30:00,31.8,15.7,-100.00,NE,45,1.1,6.9,51,0.00,n/a,n/a,-99.99,Henriksen +1-Wire,2013-03-04 14:30:00,
2013-03-04 09:40:00,31.8,15.7,-100.00,NE,45,2.6,8.6,51,0.00,n/a,n/a,-99.99,Henriksen +1-Wire,2013-03-04 14:40:00,
2013-03-04 09:50:00,31.8,15.7,-100.00,NE,45,4.3,8.8,51,0.00,n/a,n/a,-99.99,Henriksen +1-Wire,2013-03-04 14:50:00,
2013-03-04 10:00:00,31.8,15.7,-100.00,NE,45,3.8,8.7,51,0.00,n/a,n/a,-99.99,Henriksen +1-Wire,2013-03-04 15:00:00,
2013-03-04 10:10:00,31.8,15.7,-100.00,NE,45,2.8,8.7,51,0.00,n/a,n/a,-99.99,Henriksen +1-Wire,2013-03-04 15:10:00,
2013-03-04 10:20:00,31.8,15.7,-100.00,NE,45,4.5,12.5,51,0.00,n/a,n/a,-99.99,Henriksen +1-Wire,2013-03-04 15:20:00,
2013-03-04 10:30:00,31.8,15.7,-100.00,NE,45,3.6,16.3,51,0.01,n/a,n/a,-99.99,Henriksen +1-Wire,2013-03-04 15:30:00,
2013-03-04 10:40:00,31.8,15.7,-100.00,NE,45,3.2,7.7,51,0.01,n/a,n/a,-99.99,Henriksen +1-Wire,2013-03-04 15:40:00,
2013-03-04 10:50:00,31.8,15.7,-100.00,NE,45,1.1,14.6,51,0.01,n/a,n/a,-99.99,Henriksen +1-Wire,2013-03-04 15:50:00,
2013-03-04 11:00:00,31.8,15.7,-100.00,NE,45,3.6,10.6,51,0.01,n/a,n/a,-99.99,Henriksen +1-Wire,2013-03-04 16:00:00,
2013-03-04 11:10:00,31.8,15.7,-100.00,NE,45,3.4,9.7,51,0.01,n/a,n/a,-99.99,Henriksen +1-Wire,2013-03-04 16:10:00,
2013-03-04 11:20:00,31.8,15.7,-100.00,NE,45,3.5,7.8,51,0.02,n/a,n/a,-99.99,Henriksen +1-Wire,2013-03-04 16:20:00,
2013-03-04 11:30:00,31.8,15.7,-100.00,NE,45,2.8,7.8,51,0.01,n/a,n/a,-99.99,Henriksen +1-Wire,2013-03-04 16:30:00,
2013-03-04 11:40:00,31.8,15.7,-100.00,NE,45,4.2,10.6,51,0.01,n/a,n/a,-99.99,Henriksen +1-Wire,2013-03-04 16:40:00,
2013-03-04 11:50:00,31.8,15.7,-100.00,NE,45,1.6,4.9,51,0.02,n/a,n/a,-99.99,Henriksen +1-Wire,2013-03-04 16:50:00,
2013-03-04 12:00:00,31.8,15.7,-100.00,NE,45,3.0,6.8,51,0.02,n/a,n/a,-99.99,Henriksen +1-Wire,2013-03-04 17:00:00,
2013-03-04 12:10:00,31.8,15.7,-100.00,NE,45,3.7,11.7,51,0.02,n/a,n/a,-99.99,Henriksen +1-Wire,2013-03-04 17:10:00,
2013-03-04 12:20:00,31.8,15.7,-100.00,NE,45,4.8,10.6,51,0.01,n/a,n/a,-99.99,Henriksen +1-Wire,2013-03-04 17:20:00,
2013-03-04 12:30:00,31.8,15.7,-100.00,NE,45,1.5,7.8,51,0.01,n/a,n/a,-99.99,Henriksen +1-Wire,2013-03-04 17:30:00,
2013-03-04 12:40:00,31.8,15.7,-100.00,NE,45,1.2,8.7,51,0.01,n/a,n/a,-99.99,Henriksen +1-Wire,2013-03-04 17:40:00,
2013-03-04 12:50:00,31.8,15.7,-100.00,NE,45,5.6,9.7,51,0.00,n/a,n/a,-99.99,Henriksen +1-Wire,2013-03-04 17:50:00,
2013-03-04 13:00:00,31.8,15.7,-100.00,NE,45,1.9,8.6,51,0.00,n/a,n/a,-99.99,Henriksen +1-Wire,2013-03-04 18:00:00,
2013-03-04 13:10:00,31.8,15.7,-100.00,NE,45,3.2,13.6,51,0.00,n/a,n/a,-99.99,Henriksen +1-Wire,2013-03-04 18:10:00,
2013-03-04 13:20:00,31.8,15.7,-100.00,NE,45,3.1,8.8,51,0.00,n/a,n/a,-99.99,Henriksen +1-Wire,2013-03-04 18:20:00,
2013-03-04 13:30:00,31.8,15.7,-100.00,NE,45,2.0,6.8,51,0.00,n/a,n/a,-99.99,Henriksen +1-Wire,2013-03-04 18:30:00,
2013-03-04 13:40:00,31.8,15.7,-100.00,NE,45,2.0,11.7,51,0.00,n/a,n/a,-99.99,Henriksen +1-Wire,2013-03-04 18:40:00,
2013-03-04 13:50:00,31.8,15.7,-100.00,NE,45,4.1,13.5,51,0.00,n/a,n/a,-99.99,Henriksen +1-Wire,2013-03-04 18:50:00,
2013-03-04 14:00:00,31.8,15.7,-100.00,NE,45,1.8,8.7,51,0.00,n/a,n/a,-99.99,Henriksen +1-Wire,2013-03-04 19:00:00,
2013-03-04 14:10:00,31.8,15.7,-100.00,NE,45,3.0,8.7,51,0.00,n/a,n/a,-99.99,Henriksen +1-Wire,2013-03-04 19:10:00,
2013-03-04 14:20:00,31.8,15.7,-100.00,NE,45,2.2,10.6,51,0.00,n/a,n/a,-99.99,Henriksen +1-Wire,2013-03-04 19:20:00,
2013-03-04 14:30:00,31.8,15.7,-100.00,NE,45,0.4,10.6,51,0.00,n/a,n/a,-99.99,Henriksen +1-Wire,2013-03-04 19:30:00,
2013-03-04 14:40:00,31.8,15.7,-100.00,NE,45,2.4,7.8,51,0.00,n/a,n/a,-99.99,Henriksen +1-Wire,2013-03-04 19:40:00,
2013-03-04 14:50:00,31.8,15.7,-100.00,NE,45,4.2,10.7,51,0.00,n/a,n/a,-99.99,Henriksen +1-Wire,2013-03-04 19:50:00,
2013-03-04 15:00:00,31.8,15.7,-100.00,NE,45,3.4,8.6,51,0.00,n/a,n/a,-99.99,Henriksen +1-Wire,2013-03-04 20:00:00,
2013-03-04 15:10:00,31.8,15.7,-100.00,NE,45,1.1,4.9,51,0.00,n/a,n/a,-99.99,Henriksen +1-Wire,2013-03-04 20:10:00,
2013-03-04 15:20:00,31.8,15.7,-100.00,NE,45,2.4,9.7,51,0.00,n/a,n/a,-99.99,Henriksen +1-Wire,2013-03-04 20:20:00,
2013-03-04 15:30:00,31.8,15.7,-100.00,NE,45,3.2,8.7,51,0.00,n/a,n/a,-99.99,Henriksen +1-Wire,2013-03-04 20:30:00,
2013-03-04 15:40:00,31.8,15.7,-100.00,NE,45,2.9,9.8,51,0.00,n/a,n/a,-99.99,Henriksen +1-Wire,2013-03-04 20:40:00,
2013-03-04 15:50:00,31.8,15.7,-100.00,NE,45,3.5,8.7,51,0.00,n/a,n/a,-99.99,Henriksen +1-Wire,2013-03-04 20:50:00,
2013-03-04 16:00:00,31.8,15.7,-100.00,NE,45,3.0,15.5,51,0.00,n/a,n/a,-99.99,Henriksen +1-Wire,2013-03-04 21:00:00,
2013-03-04 16:10:00,31.8,15.7,-100.00,NE,45,1.7,9.6,51,0.00,n/a,n/a,-99.99,Henriksen +1-Wire,2013-03-04 21:10:00,
2013-03-04 16:20:00,31.8,15.7,-100.00,NE,45,3.8,9.7,51,0.00,n/a,n/a,-99.99,Henriksen +1-Wire,2013-03-04 21:20:00,
2013-03-04 16:30:00,31.8,15.7,-100.00,NE,45,3.1,9.6,51,0.00,n/a,n/a,-99.99,Henriksen +1-Wire,2013-03-04 21:30:00,
2013-03-04 16:40:00,31.8,15.7,-100.00,NE,45,3.2,5.9,51,0.00,n/a,n/a,-99.99,Henriksen +1-Wire,2013-03-04 21:40:00,
2013-03-04 16:50:00,31.8,15.7,-100.00,NE,45,1.5,6.8,51,0.00,n/a,n/a,-99.99,Henriksen +1-Wire,2013-03-04 21:50:00,
2013-03-04 17:00:00,31.8,15.7,-100.00,NE,45,4.7,9.7,51,0.00,n/a,n/a,-99.99,Henriksen +1-Wire,2013-03-04 22:00:00,
2013-03-04 17:10:00,31.8,15.7,-100.00,NE,45,2.0,6.8,51,0.00,n/a,n/a,-99.99,Henriksen +1-Wire,2013-03-04 22:10:00,
2013-03-04 17:20:00,31.8,15.7,-100.00,NE,45,4.3,11.5,51,0.00,n/a,n/a,-99.99,Henriksen +1-Wire,2013-03-04 22:20:00,
2013-03-04 17:30:00,31.8,15.7,-100.00,NE,45,0.3,10.7,51,0.00,n/a,n/a,-99.99,Henriksen +1-Wire,2013-03-04 22:30:00,
2013-03-04 17:40:00,31.8,15.7,-100.00,NE,45,1.9,6.8,51,0.00,n/a,n/a,-99.99,Henriksen +1-Wire,2013-03-04 22:40:00,
2013-03-04 17:50:00,31.8,15.7,-100.00,NE,45,2.6,6.9,51,0.00,n/a,n/a,-99.99,Henriksen +1-Wire,2013-03-04 22:50:00,
2013-03-04 18:00:00,31.8,15.7,-100.00,NE,45,2.7,8.6,51,0.00,n/a,n/a,-99.99,Henriksen +1-Wire,2013-03-04 23:00:00,
2013-03-04 18:10:00,31.8,15.7,-100.00,NE,45,4.3,13.4,51,0.00,n/a,n/a,-99.99,Henriksen +1-Wire,2013-03-04 23:10:00,
2013-03-04 18:20:00,31.8,15.7,-100.00,NE,45,1.9,7.7,51,0.00,n/a,n/a,-99.99,Henriksen +1-Wire,2013-03-04 23:20:00,
2013-03-04 18:30:00,31.8,15.7,-100.00,NE,45,1.6,8.7,51,0.00,n/a,n/a,-99.99,Henriksen +1-Wire,2013-03-04 23:30:00,
2013-03-04 18:40:00,31.8,15.7,-100.00,NE,45,1.3,6.8,51,0.00,n/a,n/a,-99.99,Henriksen +1-Wire,2013-03-04 23:40:00,
2013-03-04 18:50:00,31.8,15.7,-100.00,NE,45,3.3,10.7,51,0.00,n/a,n/a,-99.99,Henriksen +1-Wire,2013-03-04 23:50:00,
2013-03-04 19:00:00,31.8,15.7,-100.00,NE,45,1.4,6.8,51,0.00,n/a,n/a,-99.99,Henriksen +1-Wire,2013-03-05 00:00:00,
2013-03-04 19:10:00,31.8,15.7,-100.00,NE,45,2.9,6.8,51,0.00,n/a,n/a,-99.99,Henriksen +1-Wire,2013-03-05 00:10:00,
2013-03-04 19:20:00,31.8,15.7,-100.00,NE,45,2.1,11.6,51,0.00,n/a,n/a,-99.99,Henriksen +1-Wire,2013-03-05 00:20:00,
2013-03-04 19:30:00,31.8,15.7,-100.00,NE,45,2.1,7.8,51,0.00,n/a,n/a,-99.99,Henriksen +1-Wire,2013-03-05 00:30:00,
2013-03-04 19:40:00,31.8,15.7,-100.00,NE,45,2.1,7.7,51,0.00,n/a,n/a,-99.99,Henriksen +1-Wire,2013-03-05 00:40:00,
2013-03-04 19:50:00,31.8,15.7,-100.00,NE,45,2.6,6.8,51,0.00,n/a,n/a,-99.99,Henriksen +1-Wire,2013-03-05 00:50:00,
2013-03-04 20:00:00,31.8,15.7,-100.00,NE,45,3.3,11.7,51,0.00,n/a,n/a,-99.99,Henriksen +1-Wire,2013-03-05 01:00:00,
2013-03-04 20:10:00,31.8,15.7,-100.00,NE,45,1.8,7.8,51,0.00,n/a,n/a,-99.99,Henriksen +1-Wire,2013-03-05 01:10:00,
2013-03-04 20:20:00,31.8,15.7,-100.00,NE,45,1.4,6.8,51,0.00,n/a,n/a,-99.99,Henriksen +1-Wire,2013-03-05 01:20:00,
2013-03-04 20:30:00,31.8,15.7,-100.00,NE,45,2.3,4.9,51,0.00,n/a,n/a,-99.99,Henriksen +1-Wire,2013-03-05 01:30:00,
2013-03-04 20:40:00,31.8,15.7,-100.00,NE,45,0.9,6.8,51,0.00,n/a,n/a,-99.99,Henriksen +1-Wire,2013-03-05 01:40:00,
2013-03-04 20:50:00,31.8,15.7,-100.00,NE,45,1.3,7.7,51,0.00,n/a,n/a,-99.99,Henriksen +1-Wire,2013-03-05 01:50:00,
2013-03-04 21:00:00,31.8,15.7,-100.00,NE,45,2.8,8.7,51,0.00,n/a,n/a,-99.99,Henriksen +1-Wire,2013-03-05 02:00:00,
2013-03-04 21:10:00,31.8,15.7,-100.00,NE,45,2.2,5.8,51,0.00,n/a,n/a,-99.99,Henriksen +1-Wire,2013-03-05 02:10:00,
2013-03-04 21:20:00,31.8,15.7,-100.00,NE,45,1.7,7.8,51,0.00,n/a,n/a,-99.99,Henriksen +1-Wire,2013-03-05 02:20:00,
2013-03-04 21:30:00,31.8,15.7,-100.00,NE,45,1.9,8.7,51,0.00,n/a,n/a,-99.99,Henriksen +1-Wire,2013-03-05 02:30:00,
2013-03-04 21:40:00,31.8,15.7,-100.00,NE,45,2.0,5.2,51,0.00,n/a,n/a,-99.99,Henriksen +1-Wire,2013-03-05 02:40:00,
2013-03-04 21:50:00,31.8,15.7,-100.00,NE,45,3.8,9.6,51,0.00,n/a,n/a,-99.99,Henriksen +1-Wire,2013-03-05 02:50:00,
2013-03-04 22:00:00,31.8,15.7,-100.00,NE,45,3.3,7.7,51,0.00,n/a,n/a,-99.99,Henriksen +1-Wire,2013-03-05 03:00:00,
2013-03-04 22:10:00,31.8,15.7,-100.00,NE,45,1.8,8.7,51,0.00,n/a,n/a,-99.99,Henriksen +1-Wire,2013-03-05 03:10:00,
2013-03-04 22:20:00,31.8,15.7,-100.00,NE,45,0.2,5.8,51,0.00,n/a,n/a,-99.99,Henriksen +1-Wire,2013-03-05 03:20:00,
2013-03-04 22:30:00,31.8,15.7,-100.00,NE,45,1.9,5.8,51,0.00,n/a,n/a,-99.99,Henriksen +1-Wire,2013-03-05 03:30:00,
2013-03-04 22:40:00,31.8,15.7,-100.00,NE,45,2.2,4.9,51,0.00,n/a,n/a,-99.99,Henriksen +1-Wire,2013-03-05 03:40:00,
2013-03-04 22:50:00,31.8,15.7,-100.00,NE,45,2.6,7.8,51,0.00,n/a,n/a,-99.99,Henriksen +1-Wire,2013-03-05 03:50:00,
2013-03-04 23:00:00,31.8,15.7,-100.00,NE,45,2.3,6.8,51,0.00,n/a,n/a,-99.99,Henriksen +1-Wire,2013-03-05 04:00:00,
2013-03-04 23:10:00,31.8,15.7,-100.00,NE,45,2.5,8.7,51,0.00,n/a,n/a,-99.99,Henriksen +1-Wire,2013-03-05 04:10:00,
2013-03-04 23:20:00,31.8,15.7,-100.00,NE,45,3.0,6.8,51,0.00,n/a,n/a,-99.99,Henriksen +1-Wire,2013-03-05 04:20:00,
2013-03-04 23:30:00,31.8,15.7,-100.00,NE,45,3.1,5.9,51,0.00,n/a,n/a,-99.99,Henriksen +1-Wire,2013-03-05 04:30:00,
2013-03-04 23:40:00,31.8,15.7,-100.00,NE,45,2.4,6.8,51,0.00,n/a,n/a,-99.99,Henriksen +1-Wire,2013-03-05 04:40:00,
2013-03-04 23:50:00,31.8,15.7,-100.00,NE,45,1.7,7.8,51,0.00,n/a,n/a,-99.99,Henriksen +1-Wire,2013-03-05 04:50:00,